[[{"header":{"parameterUnit":"m.s-1","parameterCategory":1,"la1":30.2992,"la2":30.254,"lo1":-89.0895,"lo2":-89.0443,"dy":0.0025,"dx":0.0025,"nx":19,"ny":19,"refTime":"2026-03-13T09:00:00:Z","depth":0,"parameterNumber":2,"parameterNumberName":"U-component_of_WINDS"},"data":[0,0,0,-1.0906,-1.0905,-1.0852,-1.0851,-1.0799,-1.0799,0,0,0,0,0,0,0,0,0,0,0,-1.0931,-1.0931,-1.0906,-1.0905,-1.0852,-1.0851,-1.0799,-1.0799,0,0,0,0,0,0,0,0,0,0,0,-1.0931,-1.0931,-1.0931,-1.0905,-1.0852,-1.0851,-1.0799,-1.0834,0,0,0,0,0,0,0,0,0,0,-1.0883,-1.0915,-1.0931,-1.0931,-1.0905,-1.0852,-1.0851,-1.0836,-1.0832,-1.083,0,-1.0831,0,-1.0814,-1.0797,-1.0796,0,0,0,-1.0898,-1.0918,-1.0895,-1.0931,-1.0904,-1.0852,-1.0874,-1.0833,-1.0829,-1.0826,-1.083,-1.0827,-1.0813,-1.0796,-1.0796,-1.0808,-1.0808,0,0,-1.0901,-1.0926,-1.0898,-1.0893,-1.0902,-1.0876,-1.0872,-1.0831,-1.0837,-1.0829,-1.0826,-1.0812,-1.0796,-1.0796,-1.0807,-1.0808,0,0,0,-1.0914,-1.0929,-1.0907,-1.0896,-1.0885,-1.0874,-1.087,-1.0839,-1.0829,-1.0825,-1.0812,-1.0796,-1.0795,-1.0807,-1.0808,-1.085,0,0,0,-1.0916,-1.0936,-1.0908,-1.0923,-1.0886,-1.0861,-1.088,-1.0832,-1.0827,-1.0812,-1.0796,-1.0795,-1.0807,-1.0807,-1.0848,-1.0865,0,0,0,-1.0931,-1.0938,-1.0933,-1.0924,-1.0902,-1.0861,-1.0849,-1.0831,-1.0819,-1.0796,-1.0795,-1.0806,-1.0807,-1.0846,-1.0862,-1.0876,0,0,0,-1.0955,-1.0971,-1.0934,-1.0947,-1.0903,-1.0887,-1.0849,-1.0836,-1.0822,-1.0796,-1.0807,-1.0808,-1.0845,-1.086,-1.0874,-1.0891,-1.0901,0,0,-1.0989,-1.0976,-1.0981,-1.0947,-1.0944,-1.0894,-1.0897,-1.0861,-1.0836,-1.0819,-1.0819,-1.0848,-1.0862,-1.0875,-1.0947,-1.0955,0,0,0,-1.1001,-1.1005,-1.0999,-1.0986,-1.0959,-1.0937,-1.0897,-1.0884,-1.0868,-1.0832,-1.0856,-1.0864,-1.0871,-1.0878,-1.0884,-1.0889,-1.0812,-1.0812,-1.0812,-1.1084,-1.1051,-1.1059,-1.1021,-1.1009,-1.0969,-1.0957,-1.0932,-1.0903,-1.091,-1.0904,-1.0951,-1.0961,-1.0966,-1.0971,-1.0911,-1.0911,-1.0911,-1.0911,-1.113,-1.1131,-1.1093,-1.1086,-1.1053,-1.1047,-1.101,-1.099,-1.098,-1.0953,-1.0957,-1.093,-1.0975,-1.0978,-1.0914,-1.0914,-1.0913,-1.0913,-1.0913,-1.118,-1.1175,-1.1159,-1.1139,-1.1127,-1.1088,-1.1081,-1.1051,-1.1023,-1.1027,-1.1018,-1.1018,-1.1013,-1.1025,-1.1025,-1.1026,-1.1026,-1.1026,-1.1026,-1.1239,-1.1219,-1.1216,-1.119,-1.1179,-1.116,-1.1121,-1.1109,-1.1089,-1.1068,-1.1067,-1.1038,-1.0986,-1.0973,-1.1028,-1.1028,-1.1028,-1.1027,-1.1027,-1.1297,-1.1279,-1.1275,-1.1264,-1.1231,-1.1222,-1.1184,-1.1163,-1.1149,-1.1147,-1.1118,-1.1084,-1.1068,-1.1063,-1.1052,-1.1124,-1.1124,-1.1124,-1.1124,-1.1339,-1.1329,-1.1318,-1.1303,-1.1284,-1.125,-1.1247,-1.1218,-1.1185,-1.1175,-1.1161,-1.1144,-1.114,-1.1127,-1.112,-1.1109,-1.1194,-1.1194,-1.1195,-1.1373,-1.136,-1.1363,-1.133,-1.1303,-1.128,-1.1277,-1.1262,-1.1221,-1.1197,-1.1167,-1.1164,-1.1137,-1.113,-1.1104,-1.1093,-1.1074,0,0]},{"header":{"parameterUnit":"m.s-1","parameterCategory":1,"la1":30.2992,"la2":30.254,"lo1":-89.0895,"lo2":-89.0443,"dy":0.0025,"dx":0.0025,"nx":19,"ny":19,"refTime":"2026-03-13T09:00:00:Z","depth":0,"parameterNumber":3,"parameterNumberName":"V-component_of_WINDS"},"data":[0,0,0,1.5265,1.5263,1.5199,1.5199,1.5112,1.5111,0,0,0,0,0,0,0,0,0,0,0,1.5282,1.5282,1.5265,1.5263,1.52,1.5199,1.5112,1.5111,0,0,0,0,0,0,0,0,0,0,0,1.5282,1.5282,1.5281,1.5263,1.52,1.5199,1.5112,1.5162,0,0,0,0,0,0,0,0,0,0,1.5224,1.524,1.5282,1.5281,1.5263,1.52,1.5199,1.5164,1.5159,1.5139,0,1.5123,0,1.5115,1.5105,1.5104,0,0,0,1.5264,1.5244,1.5229,1.5281,1.5262,1.52,1.5228,1.5161,1.5155,1.5131,1.5121,1.5118,1.5114,1.5104,1.5104,1.4993,1.4992,0,0,1.5267,1.5269,1.5233,1.5225,1.5237,1.523,1.5226,1.5157,1.5146,1.5121,1.5116,1.5113,1.5104,1.5103,1.4993,1.4993,0,0,0,1.5277,1.5272,1.5258,1.5228,1.5217,1.5229,1.5224,1.5149,1.5144,1.5115,1.5112,1.5103,1.5102,1.4994,1.4993,1.4969,0,0,0,1.5279,1.5277,1.5259,1.526,1.5219,1.5183,1.5217,1.5149,1.5141,1.5112,1.5103,1.5101,1.4995,1.4994,1.4971,1.4957,0,0,0,1.5287,1.5278,1.5269,1.526,1.5233,1.5184,1.5175,1.5147,1.5139,1.5104,1.5101,1.4995,1.4994,1.4973,1.4959,1.4928,0,0,0,1.5295,1.5247,1.5269,1.5214,1.5234,1.5171,1.5176,1.5128,1.5096,1.5103,1.4995,1.4993,1.4973,1.4961,1.493,1.4901,1.4889,0,0,1.5236,1.524,1.5208,1.5225,1.5159,1.518,1.5109,1.5076,1.507,1.5018,1.5016,1.497,1.496,1.4928,1.4827,1.4818,0,0,0,1.519,1.5167,1.5149,1.512,1.5095,1.5072,1.5051,1.5038,1.4995,1.5045,1.4951,1.4944,1.4926,1.4912,1.4904,1.4887,1.4987,1.4987,1.4988,1.5109,1.5106,1.5052,1.504,1.5011,1.499,1.4966,1.4945,1.4949,1.4927,1.4911,1.485,1.4834,1.4828,1.4811,1.4896,1.4896,1.4896,1.4896,1.5022,1.4988,1.4995,1.4946,1.4941,1.4899,1.4876,1.488,1.4839,1.4862,1.4845,1.4869,1.4818,1.4803,1.4894,1.4894,1.4895,1.4895,1.4895,1.4967,1.495,1.4938,1.4895,1.4862,1.4852,1.4812,1.4809,1.4806,1.479,1.4772,1.4773,1.4771,1.4782,1.4782,1.4782,1.4781,1.4781,1.4781,1.4915,1.4902,1.487,1.484,1.4821,1.4795,1.4774,1.4754,1.4731,1.4732,1.4732,1.4736,1.4815,1.4834,1.4778,1.4778,1.4779,1.4779,1.4779,1.4825,1.4845,1.4796,1.4777,1.4742,1.4709,1.4707,1.4667,1.465,1.463,1.4639,1.4698,1.4701,1.4707,1.4723,1.4641,1.4641,1.4641,1.4641,1.4778,1.4781,1.473,1.4699,1.4669,1.4662,1.4604,1.4587,1.4572,1.4561,1.4573,1.4594,1.46,1.4599,1.4608,1.4622,1.4517,1.4516,1.4516,1.4722,1.4722,1.4674,1.4662,1.4635,1.461,1.4556,1.4519,1.4505,1.4511,1.4552,1.4557,1.4591,1.4603,1.4607,1.4621,1.4647,0,0]}]]